Back to catalog

STARLINK-37431

AliveCommunicationsSSO
NORAD 68812·PAYLOAD·🇺🇸 United States

Launched Apr 23, 2026 from Vandenberg Space Force Base

Loading…

Next Passes (next 24 hours)

TLE

FreshSource: CelesTrak SupGP

Epoch: Sep 14, 2026, 15:50 UTC

1 68812C 26089L   26257.66020833 -.00057521  00000+0 -17858-2 0  2579
2 68812  97.2846 103.4815 0001581  88.8834 231.0496 15.33464885    12

Track STARLINK-37431 in real time with AllMySat

Download on the App Store